Year,Month,Day,Hour,Minute,Value (Times are PST for temperature in C)
2017,07,15,00,00,18.60
2017,07,15,00,01,18.60
2017,07,15,00,02,18.60
2017,07,15,00,03,18.60
2017,07,15,00,04,18.60
2017,07,15,00,05,18.60
2017,07,15,00,06,18.60
2017,07,15,00,07,18.60
2017,07,15,00,08,18.50
2017,07,15,00,09,18.50
2017,07,15,00,10,18.50
2017,07,15,00,11,18.40
2017,07,15,00,12,18.40
2017,07,15,00,13,18.30
2017,07,15,00,14,18.30
2017,07,15,00,15,18.30
2017,07,15,00,16,18.30
2017,07,15,00,17,18.20
2017,07,15,00,18,18.20
2017,07,15,00,19,18.10
2017,07,15,00,20,18.10
2017,07,15,00,21,18.10
2017,07,15,00,22,18.00
2017,07,15,00,23,18.00
2017,07,15,00,24,17.90
2017,07,15,00,25,17.90
2017,07,15,00,26,17.80
2017,07,15,00,27,17.80
2017,07,15,00,28,17.80
2017,07,15,00,29,17.70
2017,07,15,00,30,17.70
2017,07,15,00,31,17.70
2017,07,15,00,32,17.60
2017,07,15,00,33,17.60
2017,07,15,00,34,17.50
2017,07,15,00,35,17.50
2017,07,15,00,36,17.40
2017,07,15,00,37,17.40
2017,07,15,00,38,17.30
2017,07,15,00,39,17.30
2017,07,15,00,40,17.30
2017,07,15,00,41,17.20
2017,07,15,00,42,17.20
2017,07,15,00,43,17.10
2017,07,15,00,44,17.10
2017,07,15,00,45,17.10
2017,07,15,00,46,17.00
2017,07,15,00,47,17.00
2017,07,15,00,48,16.90
2017,07,15,00,49,16.90
2017,07,15,00,50,16.90
2017,07,15,00,51,16.80
2017,07,15,00,52,16.80
2017,07,15,00,53,16.80
2017,07,15,00,54,16.80
2017,07,15,00,55,16.70
2017,07,15,00,56,16.70
2017,07,15,00,57,16.70
2017,07,15,00,58,16.60
2017,07,15,00,59,16.60
2017,07,15,01,00,16.60
2017,07,15,01,01,16.50
2017,07,15,01,02,16.50
2017,07,15,01,03,16.50
2017,07,15,01,04,16.50
2017,07,15,01,05,16.40
2017,07,15,01,06,16.40
2017,07,15,01,07,16.40
2017,07,15,01,08,16.50
2017,07,15,01,09,16.60
2017,07,15,01,10,16.60
2017,07,15,01,11,16.60
2017,07,15,01,12,16.70
2017,07,15,01,13,16.70
2017,07,15,01,14,16.70
2017,07,15,01,15,16.80
2017,07,15,01,16,16.80
2017,07,15,01,17,16.90
2017,07,15,01,18,16.90
2017,07,15,01,19,16.90
2017,07,15,01,20,16.90
2017,07,15,01,21,16.90
2017,07,15,01,22,16.90
2017,07,15,01,23,17.00
2017,07,15,01,24,17.00
2017,07,15,01,25,17.00
2017,07,15,01,26,17.10
2017,07,15,01,27,17.10
2017,07,15,01,28,17.10
2017,07,15,01,29,17.10
2017,07,15,01,30,17.10
2017,07,15,01,31,17.10
2017,07,15,01,32,17.10
2017,07,15,01,33,17.10
2017,07,15,01,34,17.10
2017,07,15,01,35,17.10
2017,07,15,01,36,17.10
2017,07,15,01,37,17.10
2017,07,15,01,38,17.10
2017,07,15,01,39,17.10
2017,07,15,01,40,17.10
2017,07,15,01,41,17.10
2017,07,15,01,42,17.10
2017,07,15,01,43,17.10
2017,07,15,01,44,17.10
2017,07,15,01,45,17.10
2017,07,15,01,46,17.10
2017,07,15,01,47,17.00
2017,07,15,01,48,17.00
2017,07,15,01,49,17.00
2017,07,15,01,50,17.00
2017,07,15,01,51,17.00
2017,07,15,01,52,17.00
2017,07,15,01,53,17.00
2017,07,15,01,54,17.00
2017,07,15,01,55,17.00
2017,07,15,01,56,17.10
2017,07,15,01,57,17.10
2017,07,15,01,58,17.10
2017,07,15,01,59,17.10
2017,07,15,02,00,17.10
2017,07,15,02,01,17.10
2017,07,15,02,02,17.10
2017,07,15,02,03,17.10
2017,07,15,02,04,17.10
2017,07,15,02,05,17.10
2017,07,15,02,06,17.10
2017,07,15,02,07,17.10
2017,07,15,02,08,17.00
2017,07,15,02,09,17.00
2017,07,15,02,10,17.00
2017,07,15,02,11,17.00
2017,07,15,02,12,16.90
2017,07,15,02,13,16.90
2017,07,15,02,14,16.90
2017,07,15,02,15,16.80
2017,07,15,02,16,16.80
2017,07,15,02,17,16.80
2017,07,15,02,18,16.80
2017,07,15,02,19,16.70
2017,07,15,02,20,16.70
2017,07,15,02,21,16.70
2017,07,15,02,22,16.60
2017,07,15,02,23,16.60
2017,07,15,02,24,16.60
2017,07,15,02,25,16.60
2017,07,15,02,26,16.50
2017,07,15,02,27,16.50
2017,07,15,02,28,16.40
2017,07,15,02,29,16.40
2017,07,15,02,30,16.40
2017,07,15,02,31,16.40
2017,07,15,02,32,16.40
2017,07,15,02,33,16.30
2017,07,15,02,34,16.30
2017,07,15,02,35,16.30
2017,07,15,02,36,16.30
2017,07,15,02,37,16.30
2017,07,15,02,38,16.30
2017,07,15,02,39,16.30
2017,07,15,02,40,16.30
2017,07,15,02,41,16.20
2017,07,15,02,42,16.20
2017,07,15,02,43,16.20
2017,07,15,02,44,16.20
2017,07,15,02,45,16.20
2017,07,15,02,46,16.10
2017,07,15,02,47,16.10
2017,07,15,02,48,16.10
2017,07,15,02,49,16.10
2017,07,15,02,50,16.00
2017,07,15,02,51,16.00
2017,07,15,02,52,16.00
2017,07,15,02,53,16.00
2017,07,15,02,54,15.90
2017,07,15,02,55,15.90
2017,07,15,02,56,15.90
2017,07,15,02,57,15.90
2017,07,15,02,58,15.90
2017,07,15,02,59,15.90
2017,07,15,03,00,15.80
2017,07,15,03,01,15.80
2017,07,15,03,02,15.80
2017,07,15,03,03,15.80
2017,07,15,03,04,15.80
2017,07,15,03,05,15.80
2017,07,15,03,06,15.80
2017,07,15,03,07,15.80
2017,07,15,03,08,15.80
2017,07,15,03,09,15.70
2017,07,15,03,10,15.70
2017,07,15,03,11,15.70
2017,07,15,03,12,15.70
2017,07,15,03,13,15.70
2017,07,15,03,14,15.70
2017,07,15,03,15,15.70
2017,07,15,03,16,15.70
2017,07,15,03,17,15.70
2017,07,15,03,18,15.70
2017,07,15,03,19,15.70
2017,07,15,03,20,15.70
2017,07,15,03,21,15.70
2017,07,15,03,22,15.60
2017,07,15,03,23,15.60
2017,07,15,03,24,15.60
2017,07,15,03,25,15.60
2017,07,15,03,26,15.60
2017,07,15,03,27,15.50
2017,07,15,03,28,15.50
2017,07,15,03,29,15.50
2017,07,15,03,30,15.40
2017,07,15,03,31,15.40
2017,07,15,03,32,15.30
2017,07,15,03,33,15.30
2017,07,15,03,34,15.30
2017,07,15,03,35,15.20
2017,07,15,03,36,15.20
2017,07,15,03,37,15.10
2017,07,15,03,38,15.10
2017,07,15,03,39,15.00
2017,07,15,03,40,15.00
2017,07,15,03,41,15.00
2017,07,15,03,42,14.90
2017,07,15,03,43,14.90
2017,07,15,03,44,14.80
2017,07,15,03,45,14.80
2017,07,15,03,46,14.80
2017,07,15,03,47,14.70
2017,07,15,03,48,14.70
2017,07,15,03,49,14.60
2017,07,15,03,50,14.60
2017,07,15,03,51,14.50
2017,07,15,03,52,14.50
2017,07,15,03,53,14.40
2017,07,15,03,54,14.40
2017,07,15,03,55,14.30
2017,07,15,03,56,14.30
2017,07,15,03,57,14.20
2017,07,15,03,58,14.20
2017,07,15,03,59,14.20
2017,07,15,04,00,14.10
2017,07,15,04,01,14.10
2017,07,15,04,02,14.00
2017,07,15,04,03,14.00
2017,07,15,04,04,13.90
2017,07,15,04,05,13.90
2017,07,15,04,06,13.80
2017,07,15,04,07,13.80
2017,07,15,04,08,13.70
2017,07,15,04,09,13.70
2017,07,15,04,10,13.60
2017,07,15,04,11,13.60
2017,07,15,04,12,13.50
2017,07,15,04,13,13.50
2017,07,15,04,14,13.40
2017,07,15,04,15,13.40
2017,07,15,04,16,13.30
2017,07,15,04,17,13.30
2017,07,15,04,18,13.30
2017,07,15,04,19,13.20
2017,07,15,04,20,13.20
2017,07,15,04,21,13.10
2017,07,15,04,22,13.10
2017,07,15,04,23,13.10
2017,07,15,04,24,13.00
2017,07,15,04,25,13.00
2017,07,15,04,26,13.00
2017,07,15,04,27,12.90
2017,07,15,04,28,12.90
2017,07,15,04,29,12.90
2017,07,15,04,30,12.90
2017,07,15,04,31,12.90
2017,07,15,04,32,12.90
2017,07,15,04,33,12.90
2017,07,15,04,34,12.90
2017,07,15,04,35,12.90
2017,07,15,04,36,13.00
2017,07,15,04,37,13.00
2017,07,15,04,38,13.00
2017,07,15,04,39,13.00
2017,07,15,04,40,13.00
2017,07,15,04,41,13.00
2017,07,15,04,42,12.90
2017,07,15,04,43,12.90
2017,07,15,04,44,12.90
2017,07,15,04,45,12.90
2017,07,15,04,46,12.90
2017,07,15,04,47,12.90
2017,07,15,04,48,12.80
2017,07,15,04,49,12.80
2017,07,15,04,50,12.80
2017,07,15,04,51,12.80
2017,07,15,04,52,12.80
2017,07,15,04,53,12.80
2017,07,15,04,54,12.70
2017,07,15,04,55,12.70
2017,07,15,04,56,12.70
2017,07,15,04,57,12.70
2017,07,15,04,58,12.70
2017,07,15,04,59,12.70
2017,07,15,05,00,12.70
2017,07,15,05,01,12.60
2017,07,15,05,02,12.60
2017,07,15,05,03,12.60
2017,07,15,05,04,12.60
2017,07,15,05,05,12.50
2017,07,15,05,06,12.50
2017,07,15,05,07,12.50
2017,07,15,05,08,12.50
2017,07,15,05,09,12.40
2017,07,15,05,10,12.40
2017,07,15,05,11,12.40
2017,07,15,05,12,12.40
2017,07,15,05,13,12.30
2017,07,15,05,14,12.30
2017,07,15,05,15,12.30
2017,07,15,05,16,12.30
2017,07,15,05,17,12.30
2017,07,15,05,18,12.20
2017,07,15,05,19,12.20
2017,07,15,05,20,12.20
2017,07,15,05,21,12.20
2017,07,15,05,22,12.20
2017,07,15,05,23,12.10
2017,07,15,05,24,12.10
2017,07,15,05,25,12.10
2017,07,15,05,26,12.10
2017,07,15,05,27,12.10
2017,07,15,05,28,12.00
2017,07,15,05,29,12.00
2017,07,15,05,30,12.00
2017,07,15,05,31,12.00
2017,07,15,05,32,12.00
2017,07,15,05,33,12.00
2017,07,15,05,34,12.00
2017,07,15,05,35,12.00
2017,07,15,05,36,12.00
2017,07,15,05,37,12.00
2017,07,15,05,38,12.00
2017,07,15,05,39,12.00
2017,07,15,05,40,12.00
2017,07,15,05,41,12.00
2017,07,15,05,42,12.00
2017,07,15,05,43,12.00
2017,07,15,05,44,12.00
2017,07,15,05,45,12.00
2017,07,15,05,46,12.00
2017,07,15,05,47,12.00
2017,07,15,05,48,12.00
2017,07,15,05,49,12.00
2017,07,15,05,50,12.00
2017,07,15,05,51,12.00
2017,07,15,05,52,12.00
2017,07,15,05,53,12.00
2017,07,15,05,54,12.00
2017,07,15,05,55,12.10
2017,07,15,05,56,12.10
2017,07,15,05,57,12.10
2017,07,15,05,58,12.10
2017,07,15,05,59,12.10
2017,07,15,06,00,12.10
2017,07,15,06,01,12.10
2017,07,15,06,02,12.10
2017,07,15,06,03,12.10
2017,07,15,06,04,12.10
2017,07,15,06,05,12.10
2017,07,15,06,06,12.10
2017,07,15,06,07,12.00
2017,07,15,06,08,12.00
2017,07,15,06,09,12.00
2017,07,15,06,10,12.00
2017,07,15,06,11,12.00
2017,07,15,06,12,12.00
2017,07,15,06,13,12.10
2017,07,15,06,14,12.10
2017,07,15,06,15,12.10
2017,07,15,06,16,12.10
2017,07,15,06,17,12.10
2017,07,15,06,18,12.10
2017,07,15,06,19,12.10
2017,07,15,06,20,12.10
2017,07,15,06,21,12.10
2017,07,15,06,22,12.10
2017,07,15,06,23,12.10
2017,07,15,06,24,12.10
2017,07,15,06,25,12.10
2017,07,15,06,26,12.20
2017,07,15,06,27,12.20
2017,07,15,06,28,12.20
2017,07,15,06,29,12.20
2017,07,15,06,30,12.20
2017,07,15,06,31,12.30
2017,07,15,06,32,12.30
2017,07,15,06,33,12.30
2017,07,15,06,34,12.40
2017,07,15,06,35,12.40
2017,07,15,06,36,12.50
2017,07,15,06,37,12.50
2017,07,15,06,38,12.60
2017,07,15,06,39,12.60
2017,07,15,06,40,12.70
2017,07,15,06,41,12.70
2017,07,15,06,42,12.70
2017,07,15,06,43,12.70
2017,07,15,06,44,12.80
2017,07,15,06,45,12.80
2017,07,15,06,46,12.80
2017,07,15,06,47,12.80
2017,07,15,06,48,12.90
2017,07,15,06,49,12.90
2017,07,15,06,50,12.90
2017,07,15,06,51,13.00
2017,07,15,06,52,13.10
2017,07,15,06,53,13.10
2017,07,15,06,54,13.10
2017,07,15,06,55,13.20
2017,07,15,06,56,13.20
2017,07,15,06,57,13.20
2017,07,15,06,58,13.30
2017,07,15,06,59,13.30
2017,07,15,07,00,13.30
2017,07,15,07,01,13.40
2017,07,15,07,02,13.40
2017,07,15,07,03,13.40
2017,07,15,07,04,13.50
2017,07,15,07,05,13.50
2017,07,15,07,06,13.50
2017,07,15,07,07,13.60
2017,07,15,07,08,13.60
2017,07,15,07,09,13.60
2017,07,15,07,10,13.60
2017,07,15,07,11,13.60
2017,07,15,07,12,13.70
2017,07,15,07,13,13.70
2017,07,15,07,14,13.70
2017,07,15,07,15,13.70
2017,07,15,07,16,13.80
2017,07,15,07,17,13.80
2017,07,15,07,18,13.80
2017,07,15,07,19,13.80
2017,07,15,07,20,13.90
2017,07,15,07,21,13.90
2017,07,15,07,22,13.90
2017,07,15,07,23,14.00
2017,07,15,07,24,14.00
2017,07,15,07,25,14.10
2017,07,15,07,26,14.10
2017,07,15,07,27,14.10
2017,07,15,07,28,14.20
2017,07,15,07,29,14.20
2017,07,15,07,30,14.20
2017,07,15,07,31,14.20
2017,07,15,07,32,14.30
2017,07,15,07,33,14.30
2017,07,15,07,34,14.30
2017,07,15,07,35,14.30
2017,07,15,07,36,14.40
2017,07,15,07,37,14.40
2017,07,15,07,38,14.40
2017,07,15,07,39,14.50
2017,07,15,07,40,14.50
2017,07,15,07,41,14.60
2017,07,15,07,42,14.60
2017,07,15,07,43,14.60
2017,07,15,07,44,14.60
2017,07,15,07,45,14.70
2017,07,15,07,46,14.70
2017,07,15,07,47,14.70
2017,07,15,07,48,14.80
2017,07,15,07,49,14.80
2017,07,15,07,50,14.80
2017,07,15,07,51,14.80
2017,07,15,07,52,14.90
2017,07,15,07,53,14.90
2017,07,15,07,54,15.00
2017,07,15,07,55,15.00
2017,07,15,07,56,15.10
2017,07,15,07,57,15.10
2017,07,15,07,58,15.10
2017,07,15,07,59,15.20
2017,07,15,08,00,15.20
2017,07,15,08,01,15.20
2017,07,15,08,02,15.30
2017,07,15,08,03,15.30
2017,07,15,08,04,15.30
2017,07,15,08,05,15.40
2017,07,15,08,06,15.40
2017,07,15,08,07,15.50
2017,07,15,08,08,15.50
2017,07,15,08,09,15.60
2017,07,15,08,10,15.60
2017,07,15,08,11,15.70
2017,07,15,08,12,15.70
2017,07,15,08,13,15.80
2017,07,15,08,14,15.80
2017,07,15,08,15,15.90
2017,07,15,08,16,15.90
2017,07,15,08,17,16.00
2017,07,15,08,18,16.00
2017,07,15,08,19,16.10
2017,07,15,08,20,16.20
2017,07,15,08,21,16.20
2017,07,15,08,22,16.20
2017,07,15,08,23,16.30
2017,07,15,08,24,16.30
2017,07,15,08,25,16.40
2017,07,15,08,26,16.40
2017,07,15,08,27,16.50
2017,07,15,08,28,16.50
2017,07,15,08,29,16.60
2017,07,15,08,30,16.60
2017,07,15,08,31,16.60
2017,07,15,08,32,16.70
2017,07,15,08,33,16.70
2017,07,15,08,34,16.80
2017,07,15,08,35,16.80
2017,07,15,08,36,16.90
2017,07,15,08,37,16.90
2017,07,15,08,38,17.00
2017,07,15,08,39,17.00
2017,07,15,08,40,17.10
2017,07,15,08,41,17.20
2017,07,15,08,42,17.30
2017,07,15,08,43,17.40
2017,07,15,08,44,17.50
2017,07,15,08,45,17.60
2017,07,15,08,46,17.70
2017,07,15,08,47,17.80
2017,07,15,08,48,17.90
2017,07,15,08,49,18.00
2017,07,15,08,50,18.10
2017,07,15,08,51,18.20
2017,07,15,08,52,18.30
2017,07,15,08,53,18.30
2017,07,15,08,54,18.30
2017,07,15,08,55,18.30
2017,07,15,08,56,18.30
2017,07,15,08,57,18.40
2017,07,15,08,58,18.40
2017,07,15,08,59,18.50
2017,07,15,09,00,18.50
2017,07,15,09,01,18.60
2017,07,15,09,02,18.60
2017,07,15,09,03,18.60
2017,07,15,09,04,18.70
2017,07,15,09,05,18.70
2017,07,15,09,06,18.70
2017,07,15,09,07,18.70
2017,07,15,09,08,18.80
2017,07,15,09,09,18.80
2017,07,15,09,10,18.90
2017,07,15,09,11,18.90
2017,07,15,09,12,18.90
2017,07,15,09,13,18.90
2017,07,15,09,14,18.90
2017,07,15,09,15,18.80
2017,07,15,09,16,18.80
2017,07,15,09,17,18.80
2017,07,15,09,18,18.90
2017,07,15,09,19,19.00
2017,07,15,09,20,19.10
2017,07,15,09,21,19.20
2017,07,15,09,22,19.30
2017,07,15,09,23,19.30
2017,07,15,09,24,19.40
2017,07,15,09,25,19.50
2017,07,15,09,26,19.60
2017,07,15,09,27,19.60
2017,07,15,09,28,19.50
2017,07,15,09,29,19.50
2017,07,15,09,30,19.40
2017,07,15,09,31,19.40
2017,07,15,09,32,19.30
2017,07,15,09,33,19.30
2017,07,15,09,34,19.30
2017,07,15,09,35,19.30
2017,07,15,09,36,19.40
2017,07,15,09,37,19.50
2017,07,15,09,38,19.60
2017,07,15,09,39,19.60
2017,07,15,09,40,19.70
2017,07,15,09,41,19.70
2017,07,15,09,42,19.70
2017,07,15,09,43,19.70
2017,07,15,09,44,19.70
2017,07,15,09,45,19.70
2017,07,15,09,46,19.60
2017,07,15,09,47,19.60
2017,07,15,09,48,19.70
2017,07,15,09,49,19.80
2017,07,15,09,50,19.80
2017,07,15,09,51,20.00
2017,07,15,09,52,20.10
2017,07,15,09,53,20.10
2017,07,15,09,54,20.10
2017,07,15,09,55,20.20
2017,07,15,09,56,20.20
2017,07,15,09,57,20.20
2017,07,15,09,58,20.10
2017,07,15,09,59,20.10
2017,07,15,10,00,20.00
2017,07,15,10,01,19.90
2017,07,15,10,02,19.90
2017,07,15,10,03,19.90
2017,07,15,10,04,19.90
2017,07,15,10,05,19.90
2017,07,15,10,06,19.90
2017,07,15,10,07,19.90
2017,07,15,10,08,19.90
2017,07,15,10,09,19.90
2017,07,15,10,10,20.00
2017,07,15,10,11,20.10
2017,07,15,10,12,20.20
2017,07,15,10,13,20.30
2017,07,15,10,14,20.30
2017,07,15,10,15,20.30
2017,07,15,10,16,20.30
2017,07,15,10,17,20.30
2017,07,15,10,18,20.30
2017,07,15,10,19,20.40
2017,07,15,10,20,20.40
2017,07,15,10,21,20.40
2017,07,15,10,22,20.40
2017,07,15,10,23,20.40
2017,07,15,10,24,20.30
2017,07,15,10,25,20.30
2017,07,15,10,26,20.30
2017,07,15,10,27,20.30
2017,07,15,10,28,20.40
2017,07,15,10,29,20.40
2017,07,15,10,30,20.40
2017,07,15,10,31,20.40
2017,07,15,10,32,20.40
2017,07,15,10,33,20.40
2017,07,15,10,34,20.40
2017,07,15,10,35,20.40
2017,07,15,10,36,20.50
2017,07,15,10,37,20.60
2017,07,15,10,38,20.80
2017,07,15,10,39,20.90
2017,07,15,10,40,21.10
2017,07,15,10,41,21.20
2017,07,15,10,42,21.30
2017,07,15,10,43,21.40
2017,07,15,10,44,21.50
2017,07,15,10,45,21.60
2017,07,15,10,46,21.60
2017,07,15,10,47,21.60
2017,07,15,10,48,21.60
2017,07,15,10,49,21.60
2017,07,15,10,50,21.60
2017,07,15,10,51,21.60
2017,07,15,10,52,21.70
2017,07,15,10,53,21.70
2017,07,15,10,54,21.80
2017,07,15,10,55,21.80
2017,07,15,10,56,21.90
2017,07,15,10,57,22.00
2017,07,15,10,58,22.00
2017,07,15,10,59,22.10
2017,07,15,11,00,22.20
2017,07,15,11,01,22.30
2017,07,15,11,02,22.40
2017,07,15,11,03,22.40
2017,07,15,11,04,22.50
2017,07,15,11,05,22.50
2017,07,15,11,06,22.60
2017,07,15,11,07,22.60
2017,07,15,11,08,22.60
2017,07,15,11,09,22.70
2017,07,15,11,10,22.80
2017,07,15,11,11,22.90
2017,07,15,11,12,22.90
2017,07,15,11,13,22.90
2017,07,15,11,14,22.90
2017,07,15,11,15,22.90
2017,07,15,11,16,22.90
2017,07,15,11,17,23.00
2017,07,15,11,18,22.90
2017,07,15,11,19,23.00
2017,07,15,11,20,23.00
2017,07,15,11,21,23.10
2017,07,15,11,22,23.00
2017,07,15,11,23,23.00
2017,07,15,11,24,23.00
2017,07,15,11,25,23.10
2017,07,15,11,26,23.10
2017,07,15,11,27,23.20
2017,07,15,11,28,23.20
2017,07,15,11,29,23.30
2017,07,15,11,30,23.20
2017,07,15,11,31,23.20
2017,07,15,11,32,23.10
2017,07,15,11,33,23.00
2017,07,15,11,34,23.00
2017,07,15,11,35,22.90
2017,07,15,11,36,22.90
2017,07,15,11,37,22.90
2017,07,15,11,38,23.00
2017,07,15,11,39,23.10
2017,07,15,11,40,23.20
2017,07,15,11,41,23.30
2017,07,15,11,42,23.30
2017,07,15,11,43,23.40
2017,07,15,11,44,23.50
2017,07,15,11,45,23.60
2017,07,15,11,46,23.60
2017,07,15,11,47,23.60
2017,07,15,11,48,23.70
2017,07,15,11,49,23.70
2017,07,15,11,50,23.70
2017,07,15,11,51,23.60
2017,07,15,11,52,23.50
2017,07,15,11,53,23.50
2017,07,15,11,54,23.50
2017,07,15,11,55,23.60
2017,07,15,11,56,23.60
2017,07,15,11,57,23.60
2017,07,15,11,58,23.70
2017,07,15,11,59,23.70
2017,07,15,12,00,23.70
2017,07,15,12,01,23.70
2017,07,15,12,02,23.60
2017,07,15,12,03,23.50
2017,07,15,12,04,23.40
2017,07,15,12,05,23.40
2017,07,15,12,06,23.30
2017,07,15,12,07,23.20
2017,07,15,12,08,23.10
2017,07,15,12,09,23.10
2017,07,15,12,10,23.10
2017,07,15,12,11,23.10
2017,07,15,12,12,23.10
2017,07,15,12,13,23.20
2017,07,15,12,14,23.30
2017,07,15,12,15,23.30
2017,07,15,12,16,23.30
2017,07,15,12,17,23.30
2017,07,15,12,18,23.30
2017,07,15,12,19,23.30
2017,07,15,12,20,23.30
2017,07,15,12,21,23.40
2017,07,15,12,22,23.60
2017,07,15,12,23,23.70
2017,07,15,12,24,23.80
2017,07,15,12,25,23.80
2017,07,15,12,26,23.80
2017,07,15,12,27,23.80
2017,07,15,12,28,23.90
2017,07,15,12,29,23.90
2017,07,15,12,30,24.00
2017,07,15,12,31,24.10
2017,07,15,12,32,24.10
2017,07,15,12,33,24.00
2017,07,15,12,34,24.00
2017,07,15,12,35,24.00
2017,07,15,12,36,24.00
2017,07,15,12,37,23.90
2017,07,15,12,38,23.80
2017,07,15,12,39,23.80
2017,07,15,12,40,23.70
2017,07,15,12,41,23.60
2017,07,15,12,42,23.40
2017,07,15,12,43,23.30
2017,07,15,12,44,23.30
2017,07,15,12,45,23.30
2017,07,15,12,46,23.30
2017,07,15,12,47,23.40
2017,07,15,12,48,23.40
2017,07,15,12,49,23.50
2017,07,15,12,50,23.50
2017,07,15,12,51,23.50
2017,07,15,12,52,23.50
2017,07,15,12,53,23.60
2017,07,15,12,54,23.60
2017,07,15,12,55,23.60
2017,07,15,12,56,23.70
2017,07,15,12,57,23.80
2017,07,15,12,58,23.90
2017,07,15,12,59,23.90
2017,07,15,13,00,24.00
2017,07,15,13,01,24.00
2017,07,15,13,02,24.00
2017,07,15,13,03,24.10
2017,07,15,13,04,24.10
2017,07,15,13,05,24.10
2017,07,15,13,06,24.10
2017,07,15,13,07,23.90
2017,07,15,13,08,23.90
2017,07,15,13,09,23.80
2017,07,15,13,10,23.70
2017,07,15,13,11,23.70
2017,07,15,13,12,23.80
2017,07,15,13,13,23.80
2017,07,15,13,14,23.80
2017,07,15,13,15,23.80
2017,07,15,13,16,23.90
2017,07,15,13,17,23.90
2017,07,15,13,18,24.00
2017,07,15,13,19,24.10
2017,07,15,13,20,24.10
2017,07,15,13,21,24.10
2017,07,15,13,22,24.10
2017,07,15,13,23,24.10
2017,07,15,13,24,24.00
2017,07,15,13,25,23.90
2017,07,15,13,26,24.00
2017,07,15,13,27,24.00
2017,07,15,13,28,24.10
2017,07,15,13,29,24.30
2017,07,15,13,30,24.40
2017,07,15,13,31,24.50
2017,07,15,13,32,24.70
2017,07,15,13,33,24.80
2017,07,15,13,34,24.90
2017,07,15,13,35,25.00
2017,07,15,13,36,25.00
2017,07,15,13,37,24.90
2017,07,15,13,38,24.70
2017,07,15,13,39,24.60
2017,07,15,13,40,24.50
2017,07,15,13,41,24.30
2017,07,15,13,42,24.30
2017,07,15,13,43,24.20
2017,07,15,13,44,24.20
2017,07,15,13,45,24.20
2017,07,15,13,46,24.30
2017,07,15,13,47,24.30
2017,07,15,13,48,24.30
2017,07,15,13,49,24.30
2017,07,15,13,50,24.30
2017,07,15,13,51,24.30
2017,07,15,13,52,24.40
2017,07,15,13,53,24.60
2017,07,15,13,54,24.70
2017,07,15,13,55,24.80
2017,07,15,13,56,24.80
2017,07,15,13,57,24.90
2017,07,15,13,58,25.00
2017,07,15,13,59,25.00
2017,07,15,14,00,25.10
2017,07,15,14,01,25.10
2017,07,15,14,02,25.20
2017,07,15,14,03,25.20
2017,07,15,14,04,25.20
2017,07,15,14,05,25.20
2017,07,15,14,06,25.20
2017,07,15,14,07,25.10
2017,07,15,14,08,25.00
2017,07,15,14,09,24.90
2017,07,15,14,10,24.80
2017,07,15,14,11,24.70
2017,07,15,14,12,24.70
2017,07,15,14,13,24.70
2017,07,15,14,14,24.60
2017,07,15,14,15,24.60
2017,07,15,14,16,24.60
2017,07,15,14,17,24.50
2017,07,15,14,18,24.40
2017,07,15,14,19,24.30
2017,07,15,14,20,24.20
2017,07,15,14,21,24.20
2017,07,15,14,22,24.10
2017,07,15,14,23,24.00
2017,07,15,14,24,23.90
2017,07,15,14,25,23.90
2017,07,15,14,26,23.80
2017,07,15,14,27,23.70
2017,07,15,14,28,23.60
2017,07,15,14,29,23.60
2017,07,15,14,30,23.60
2017,07,15,14,31,23.70
2017,07,15,14,32,23.80
2017,07,15,14,33,23.90
2017,07,15,14,34,23.90
2017,07,15,14,35,24.00
2017,07,15,14,36,24.10
2017,07,15,14,37,24.00
2017,07,15,14,38,24.00
2017,07,15,14,39,23.80
2017,07,15,14,40,23.70
2017,07,15,14,41,23.70
2017,07,15,14,42,23.70
2017,07,15,14,43,23.70
2017,07,15,14,44,23.80
2017,07,15,14,45,23.90
2017,07,15,14,46,23.90
2017,07,15,14,47,23.90
2017,07,15,14,48,23.90
2017,07,15,14,49,23.90
2017,07,15,14,50,23.90
2017,07,15,14,51,24.00
2017,07,15,14,52,23.90
2017,07,15,14,53,23.80
2017,07,15,14,54,23.70
2017,07,15,14,55,23.70
2017,07,15,14,56,23.70
2017,07,15,14,57,23.60
2017,07,15,14,58,23.50
2017,07,15,14,59,23.50
2017,07,15,15,00,23.50
2017,07,15,15,01,23.40
2017,07,15,15,02,23.40
2017,07,15,15,03,23.50
2017,07,15,15,04,23.50
2017,07,15,15,05,23.60
2017,07,15,15,06,23.70
2017,07,15,15,07,23.60
2017,07,15,15,08,23.60
2017,07,15,15,09,23.60
2017,07,15,15,10,23.50
2017,07,15,15,11,23.50
2017,07,15,15,12,23.40
2017,07,15,15,13,23.50
2017,07,15,15,14,23.50
2017,07,15,15,15,23.40
2017,07,15,15,16,23.50
2017,07,15,15,17,23.50
2017,07,15,15,18,23.60
2017,07,15,15,19,23.60
2017,07,15,15,20,23.60
2017,07,15,15,21,23.60
2017,07,15,15,22,23.60
2017,07,15,15,23,23.70
2017,07,15,15,24,23.90
2017,07,15,15,25,24.00
2017,07,15,15,26,24.00
2017,07,15,15,27,24.10
2017,07,15,15,28,24.00
2017,07,15,15,29,23.90
2017,07,15,15,30,23.80
2017,07,15,15,31,23.80
2017,07,15,15,32,23.70
2017,07,15,15,33,23.60
2017,07,15,15,34,23.50
2017,07,15,15,35,23.40
2017,07,15,15,36,23.40
2017,07,15,15,37,23.40
2017,07,15,15,38,23.40
2017,07,15,15,39,23.40
2017,07,15,15,40,23.30
2017,07,15,15,41,23.30
2017,07,15,15,42,23.20
2017,07,15,15,43,23.20
2017,07,15,15,44,23.20
2017,07,15,15,45,23.20
2017,07,15,15,46,23.30
2017,07,15,15,47,23.30
2017,07,15,15,48,23.30
2017,07,15,15,49,23.30
2017,07,15,15,50,23.30
2017,07,15,15,51,23.30
2017,07,15,15,52,23.20
2017,07,15,15,53,23.20
2017,07,15,15,54,23.10
2017,07,15,15,55,23.10
2017,07,15,15,56,23.00
2017,07,15,15,57,23.00
2017,07,15,15,58,22.90
2017,07,15,15,59,22.90
2017,07,15,16,00,22.90
2017,07,15,16,01,23.00
2017,07,15,16,02,23.00
2017,07,15,16,03,23.10
2017,07,15,16,04,23.10
2017,07,15,16,05,23.10
2017,07,15,16,06,23.00
2017,07,15,16,07,22.90
2017,07,15,16,08,22.80
2017,07,15,16,09,22.70
2017,07,15,16,10,22.70
2017,07,15,16,11,22.70
2017,07,15,16,12,22.70
2017,07,15,16,13,22.80
2017,07,15,16,14,22.90
2017,07,15,16,15,23.00
2017,07,15,16,16,23.10
2017,07,15,16,17,23.10
2017,07,15,16,18,23.10
2017,07,15,16,19,23.00
2017,07,15,16,20,23.00
2017,07,15,16,21,22.90
2017,07,15,16,22,22.90
2017,07,15,16,23,22.90
2017,07,15,16,24,22.90
2017,07,15,16,25,23.00
2017,07,15,16,26,23.00
2017,07,15,16,27,23.10
2017,07,15,16,28,23.10
2017,07,15,16,29,23.20
2017,07,15,16,30,23.20
2017,07,15,16,31,23.10
2017,07,15,16,32,22.90
2017,07,15,16,33,22.80
2017,07,15,16,34,22.80
2017,07,15,16,35,22.70
2017,07,15,16,36,22.60
2017,07,15,16,37,22.50
2017,07,15,16,38,22.30
2017,07,15,16,39,22.20
2017,07,15,16,40,22.10
2017,07,15,16,41,22.00
2017,07,15,16,42,21.90
2017,07,15,16,43,21.90
2017,07,15,16,44,21.90
2017,07,15,16,45,21.90
2017,07,15,16,46,22.00
2017,07,15,16,47,22.00
2017,07,15,16,48,21.90
2017,07,15,16,49,21.90
2017,07,15,16,50,21.80
2017,07,15,16,51,21.70
2017,07,15,16,52,21.80
2017,07,15,16,53,21.90
2017,07,15,16,54,21.90
2017,07,15,16,55,22.00
2017,07,15,16,56,22.10
2017,07,15,16,57,22.10
2017,07,15,16,58,22.00
2017,07,15,16,59,22.00
2017,07,15,17,00,21.90
2017,07,15,17,01,21.90
2017,07,15,17,02,21.90
2017,07,15,17,03,22.00
2017,07,15,17,04,22.10
2017,07,15,17,05,22.10
2017,07,15,17,06,22.20
2017,07,15,17,07,22.20
2017,07,15,17,08,22.10
2017,07,15,17,09,22.20
2017,07,15,17,10,22.20
2017,07,15,17,11,22.20
2017,07,15,17,12,22.30
2017,07,15,17,13,22.30
2017,07,15,17,14,22.30
2017,07,15,17,15,22.30
2017,07,15,17,16,22.20
2017,07,15,17,17,22.10
2017,07,15,17,18,22.00
2017,07,15,17,19,21.90